Showing default

JILIN-01-06, 43024

Orbit data source: Space-Track

JILIN-01-06, 43024 is a payload satellite owned by Changguang WJ (CN) in SSO that was launched on Tue, 21 Nov 2017 UTC via a CHANG ZHENG 6 launch vehicle from the Taiyaun Space Center, China (TSC). Payload-class satellites include a variety of spacecraft equipped with specific instruments for various scientific and technological missions. These include communications satellites like Starlink; space stations such as the ISS; scientific satellites like the Hubble; Earth observation satellites from companies like Planet Labs, Umbra, and HawkEye 360; GPS; miniature CubeSats for education and research; and military/defense satellites.

Loading next visibility...
Identifier
43024, 2017-074C
Orbit
SSO
Last TLE update
4 hours ago
Origin
Manufacturer
HARB/CIOMP
Mission
Operational Commercial Imaging
Bus & Motor
JL-1, Unknown motor
Mass
95 kg wet, 95 kg dry
Launch date (UTC)
2017-11-21 (8 years ago)
Launch vehicle
CHANG ZHENG 6
Launch site
Taiyaun Space Center, China (TSC)
Object type
Payload
Rocket body
Debris
Shape & HBR
Box + 2 Pan, 1.5 m
Radar Cross Section
2.000 m², Medium (>0.1 m² and < 1m²)

Expand to show TLE details & history

TLE from 4 hours ago
0 JILIN-01-06
1 43024U 17074C   25192.16906624  .00004343  00000-0  16368-3 0  9996
2 43024  97.4794 287.7202 0007966  21.3974 338.7597 15.27592964421668
Epoch: 2025-07-11T04:03Z
TLE epoch observation values (Epoch: 2025-07-11T04:03:27.323Z)
Latitude
0.00004°
Longitude
-62.46851°
Altitude
481.014 km
Speed
7.628 km/s
True Right ascension
19h 10m 52s
True Declination
0° 00' 00"
Sunlit
Object was in full shadow at epoch
Visualization orbit readout
Latitude
-76.12032°
Longitude
-30.38893°
Altitude
511.337 km
Speed
7.606 km/s
Apparent Right ascension
08h 25m 26s
Apparent Declination
-73° 03' 19"
Sunlit
Object is in full shadow
Visualization observer readout
Local Sidereal Time
20:43:29
Azimuth
177.602° S
Elevation
-56.788°
Doppler factor
1
Orbital elements
Apogee altitude
485.432 km
Perigee altitude
474.506 km
Semi-major axis
6,858.106 km
Eccentricity
0.0008
Inclination
97.4794°
RAAN
287.7202°
Arg. of periapsis
21.3974°
True anomaly
Unknown
Mean anomaly
338.7597°
Eccentric anomaly
Unknown
Mean motion
3.82153 °/min
Orbital period
94.2 mins
BSTAR
0.00016368
Loading maneuver chart data...
Loading SW <> Apogee altitude chart data...
Loading historical data...
Loading historical data...
Loading historical data...
Loading historical data...
Loading historical data...
Loading historical data...
Loading historical data...
Other satellites on launch #74 in the year 2017 (2017-11-21 UTC)

JILIN-01-06 Visibility forecast

Observer location: undefined°, undefined°

Span
Click to sort rows by Start time (UTC) header in descending order
Start Az.
Max El. time (UTC)
Max El. Az.
Max El.
End time (UTC)
End Az.
5 mins2025-07-11 18:46:56.420Z40.71° NE2025-07-11 18:48:56.420Z88.058° E28.599°2025-07-11 18:51:56.420Z160.036° S
4 mins2025-07-12 06:55:56.420Z218.225° SW2025-07-12 06:56:56.420Z248.903° W29.285°2025-07-12 06:59:56.420Z325.022° NNW
|